Regional Weather Roundup
Issued by NWS San Angelo, TX

Home | Current Version | Previous Version | Text Only | Print | Product List | Glossary On
Versions: 1 2 3 4 5 6 7 8 9 10 11 12 13 14 15 16 17 18 19 20 21 22 23 24 25 26 27 28 29 30 31 32 33 34 35 36 37 38 39 40 41 42 43 44 45 46 47 48 49 50
000
ASUS44 KSJT 061611
RWRSJT
WEST CENTRAL TEXAS REGIONAL WEATHER ROUNDUP
NATIONAL WEATHER SERVICE SAN ANGELO TX
1000 AM CST SAT FEB 06 2016

NOTE: "FAIR" INDICATES FEW OR NO CLOUDS BELOW 12,000 FEET WITH NO
SIGNIFICANT WEATHER AND/OR OBSTRUCTIONS TO VISIBILITY.

TXZ049-054-064>066-071>073-076>078-098-099-113-114-127-128-139-140-
154-155-168>170-061700
...LOCATIONS ACROSS WEST CENTRAL TEXAS...

CITY           SKY/WX    TMP DP  RH WIND       PRES   REMARKS
SAN ANGELO     SUNNY     43  22  43 W10       30.46R WCI  37
ABILENE        SUNNY     42  23  46 N17       30.43R WCI  34
DYESS AFB      SUNNY     43  22  43 N20       30.43R WCI  35
JUNCTION       SUNNY     47  20  34 NW14      30.44R
SWEETWATER     SUNNY     45  18  34 N14       30.46R WCI  38
BROWNWOOD      SUNNY     46  23  39 MISG      30.42R
COLEMAN        SUNNY     46  21  37 N17G25    30.43R WCI  39
SONORA         SUNNY     45  21  39 NW9G15    30.51R WCI  40
OZONA          FAIR      45  21  39 NW10      30.49S WCI  39
BRADY          NOT AVBL
$$

TEXAS PANHANDLE/OKLAHOMA PANHANDLE

CITY           SKY/WX    TMP DP  RH WIND       PRES   REMARKS
AMARILLO       SUNNY     37  17  44 W8        30.39R WCI  31
BORGER         SUNNY     33  19  56 SW8       30.40R WCI  26
CANADIAN       SUNNY     37  21  52 NW7       30.39R WCI  31
DALHART        SUNNY     35  19  52 W9        30.36S WCI  28
DUMAS          SUNNY     34  20  57 W8        30.37S WCI  27
GUYMON         NOT AVBL
HEREFORD       NOT AVBL
PAMPA          SUNNY     34  24  67 W12       30.39R WCI  26
PERRYTON       SUNNY     36  23  59 W6        30.36R WCI  31
$$

SOUTHERN PANHANDLE/SOUTH PLAINS/ROLLING PLAINS

CITY           SKY/WX    TMP DP  RH WIND       PRES   REMARKS
LUBBOCK        MOSUNNY   37  21  52 W7        30.41S WCI  32
SNYDER           N/A     43  21  41 NW13      30.45R WCI  36
CHILDRESS      SUNNY     38  19  46 NW9       30.42R WCI  31
SEMINOLE       SUNNY     39  19  44 W3        30.44F
$$

PERMIAN BASIN

CITY           SKY/WX    TMP DP  RH WIND       PRES   REMARKS
MIDLAND        SUNNY     45  21  38 NW8       30.45S
ODESSA         SUNNY     44  20  38 NW8       30.46R WCI  39
WINK           SUNNY     40  17  39 CALM      30.45S
$$

FAR WEST/SOUTHWEST MOUNTAINS/TRANS PECOS

CITY           SKY/WX    TMP DP  RH WIND       PRES   REMARKS
ALPINE         SUNNY     45   9  23 W9        30.51F WCI  40
DRYDEN           N/A     50  18  28 W10       30.46R
EL PASO        SUNNY     34   7  32 N5        30.48S WCI  30
FORT STOCKTON  SUNNY     43  19  38 W6        30.47R WCI  39
GUADALUPE PASS SUNNY     31   5  33 SW21      30.44S WCI  18
MARFA          SUNNY     38  10  31 SW3       30.49R
PECOS          SUNNY     35  15  44 CALM      30.46F
$$

DALLAS/FORT WORTH METROPLEX

CITY           SKY/WX    TMP DP  RH WIND       PRES   REMARKS
DFW AIRPORT    CLOUDY    42  37  82 N20       30.34R WCI  33
FTW MEACHAM    CLOUDY    44  37  76 N15       30.37R WCI  37
DAL-EXECUTIVE  CLOUDY    41  37  86 N9        30.33R WCI  35
GRAND PRAIRIE  CLOUDY    43  36  75 NW5       30.37R
ADDISON        CLOUDY    41  37  87 NE13G20   30.25F WCI  34
MESQUITE       CLOUDY    43  39  87 N8        30.34R WCI  38
LANCASTER      CLOUDY    42  37  82 N8        30.35R WCI  37
$$

NORTH CENTRAL TEXAS

CITY           SKY/WX    TMP DP  RH WIND       PRES   REMARKS
SHRMAN/DENISON DRIZZLE   41  38  91 NE3       30.39R
GAINESVILLE    PTSUNNY   40  35  81 NE6       30.41R WCI  36
BRIDGEPORT     MOSUNNY   43  37  78 N7        30.42R WCI  39
DENTON         CLOUDY    42  36  79 N18       30.39R WCI  34
WAXAHACHIE     CLOUDY    41  37  84 NW10      30.35R WCI  35
GRANBURY       SUNNY     46  35  65 NW16      30.40R WCI  39
$$

WESTERN NORTH TEXAS

CITY           SKY/WX    TMP DP  RH WIND       PRES   REMARKS
WICHITA FALLS  SUNNY     41  27  57 N13       30.41R WCI  34
VERNON         SUNNY     40  22  48 NW10      30.45R WCI  33
BRECKENRIDGE   SUNNY     44  25  47 NW13G18   30.43R WCI  37
COMANCHE       SUNNY     44  26  49 N18G30    30.39R WCI  37
$$

CENTRAL AND SOUTH CENTRAL TEXAS

CITY           SKY/WX    TMP DP  RH WIND       PRES   REMARKS
AUSTIN/BERGSTM SUNNY     51  28  41 NW15G26   30.37R
WACO           SUNNY     48  34  58 NW22G29   30.33R
HILLSBORO      MOSUNNY   43  33  69 NW16G22   30.34R WCI  35
TEMPLE         SUNNY     49  32  52 NW24G31   30.33
KILLEEN-GRAY   SUNNY     49  29  46 NW23G31   30.35R
FORT HOOD      SUNNY     49  30  48 NW26G37   30.32R
GEORGETOWN     SUNNY     48  28  46 NW17G26   30.37R
LAGO VISTA     FAIR      50  28  43 NW9G22    30.37R
SAN MARCOS     SUNNY     52  28  40 NW21G29   30.40R
NEW BRAUNFELS  MOSUNNY   55  28  35 NW20G25   30.39R
RANDOLPH AFB   SUNNY     52  27  38 NW22      30.40R
SAN ANTONIO    MOSUNNY   52  26  36 NW16G25   30.42R
STINSON        SUNNY     54  27  35 NW12G17   30.41R
PLEASANTON     NOT AVBL
LA GRANGE      SUNNY     54  33  44 NW18G24   30.34R
GIDDINGS       SUNNY     49  32  51 NW17G25   30.40R
$$

EAST TEXAS

CITY           SKY/WX    TMP DP  RH WIND       PRES   REMARKS
PARIS          PTSUNNY   43  34  70 NW10      30.36R WCI  37
CLARKSVILLE    NOT AVBL
TYLER          PTSUNNY   46  37  71 NE10      30.31R
LONGVIEW       LGT RAIN  41  38  89 SE6       30.33R WCI  37
PALESTINE      SUNNY     45  37  73 CALM      30.31R
NACOGDOCHES    CLOUDY    43  37  81 SE10      30.31S WCI  37
$$

TEXAS HILL COUNTRY AND EDWARDS PLATEAU

CITY           SKY/WX    TMP DP  RH WIND       PRES   REMARKS
LLANO          SUNNY     48  23  37 N21G29    30.45R
HORSESHOE BAY  FAIR      48  26  42 NW17G23   30.40R
KERRVILLE      SUNNY     48  24  39 NW18G24   30.41R
FREDERICKSBRG  SUNNY     46  21  36 N16G25    30.40S WCI  40
ROCKSPRINGS    SUNNY     45  21  39 NW15      30.46R WCI  38
HONDO          SUNNY     54  23  30 N17       30.46R
UVALDE         SUNNY     51  24  35 NW12      30.48R
DEL RIO        SUNNY     49  23  36 W8        30.50R
$$

SOUTHEAST TEXAS

CITY           SKY/WX    TMP DP  RH WIND       PRES   REMARKS
COLLEGE STN    SUNNY     48  34  58 NW15G24   30.33R
CALDWELL       SUNNY     48  32  53 NW13G20   30.37R
CROCKETT       MOSUNNY   46  37  71 NW3       30.33R
BRENHAM        SUNNY     50  35  56 NW20      30.34R
HUNTSVILLE     SUNNY     49  34  56 W12       30.29R
CONROE         SUNNY     50  35  56 W10       30.31S
HOUSTON BUSH   MOSUNNY   52  43  71 W12       30.32R
HOUSTON HOBBY  MOSUNNY   53  41  63 W16G22    30.33R
PERLAND        SUNNY     54  42  64 W9        30.34R
WHARTON        SUNNY     53  39  60 W15G21    30.36S
$$

THE UPPER TEXAS COAST

CITY           SKY/WX    TMP DP  RH WIND       PRES   REMARKS
ORANGE         MOSUNNY   47  40  79 E10       30.34F
PORT ARTHUR    SUNNY     50  44  80 E12       30.31F
GALVESTON      MOSUNNY   54  47  77 W8        30.34R
ANGLETON       SUNNY     55  45  68 NW12      30.34R
BAY CITY       SUNNY     55  43  63 W16G22    30.35R
$$

TEXAS COASTAL BEND, RIO GRANDE PLAINS DEEP SOUTH TEXAS

CITY           SKY/WX    TMP DP  RH WIND       PRES   REMARKS
VICTORIA       SUNNY     56  36  47 NW25G32   30.38R
BEEVILLE       FAIR      57  33  40 NW14      30.41R
ROCKPORT       SUNNY     60  40  47 NW12      30.39R
PORT ARANSAS   SUNNY     57  41  54 NW14      30.40R
PORT LAVACA    SUNNY     57  34  42 NW16G25   30.37S
CORPUS CHRISTI SUNNY     60  39  45 NW20G25   30.42R
KINGSVILLE NAS SUNNY     60  41  49 NW20      30.44R
COTULLA        SUNNY     52  29  41 NW10      30.47R
LAREDO         SUNNY     54  27  35 NW12      30.50R
BROWNSVILLE    SUNNY     64  50  60 NW20G25   30.43R
PORT ISABEL    SUNNY     65  50  58 NW22      30.41R
HEBBRONVILLE   NOT AVBL
MCALLEN        SUNNY     63  46  54 NW10      30.45R
WESLACO        SUNNY     61  48  63 NW16      30.44R
FALFURRIAS     SUNNY     59  38  46 NW12G18   30.44R
EDINBURG       SUNNY     65  45  48 NW17      30.44S
$$



USA.gov is the U.S. government's official web portal to all federal, state and local government web resources and services.